TimeCST,TemperatureF,Dew PointF,Humidity,Sea Level PressureIn,VisibilityMPH,Wind Direction,Wind SpeedMPH,Gust SpeedMPH,PrecipitationIn,Events,Conditions,WindDirDegrees,DateUTC
12:53 AM,46.9,39.9,77,30.06,10.0,North,5.8,-,N/A,,Clear,360,2013-02-14 06:53:00
1:53 AM,45.0,39.9,82,30.04,10.0,North,5.8,-,N/A,,Clear,360,2013-02-14 07:53:00
2:53 AM,44.1,39.9,85,30.06,10.0,North,4.6,-,N/A,,Clear,360,2013-02-14 08:53:00
3:53 AM,44.1,39.0,82,30.06,10.0,North,6.9,-,N/A,,Clear,350,2013-02-14 09:53:00
4:53 AM,44.1,39.0,82,30.07,10.0,North,8.1,-,N/A,,Clear,350,2013-02-14 10:53:00
5:53 AM,44.1,39.0,82,30.09,10.0,North,6.9,-,N/A,,Clear,350,2013-02-14 11:53:00
6:53 AM,43.0,39.0,86,30.11,10.0,North,8.1,-,N/A,,Clear,350,2013-02-14 12:53:00
7:53 AM,44.1,39.0,82,30.14,10.0,North,8.1,-,N/A,,Clear,360,2013-02-14 13:53:00
8:53 AM,45.0,39.0,80,30.15,10.0,NE,8.1,-,N/A,,Clear,40,2013-02-14 14:53:00
9:53 AM,48.0,39.0,71,30.16,10.0,NNE,4.6,-,N/A,,Clear,30,2013-02-14 15:53:00
10:53 AM,48.9,37.9,66,30.15,10.0,North,6.9,-,N/A,,Partly Cloudy,360,2013-02-14 16:53:00
11:53 AM,48.9,39.0,69,30.14,10.0,Variable,5.8,-,N/A,,Clear,0,2013-02-14 17:53:00
12:53 PM,51.1,39.0,63,30.12,10.0,North,5.8,-,N/A,,Clear,10,2013-02-14 18:53:00
1:53 PM,54.0,39.9,59,30.07,10.0,NNE,8.1,-,N/A,,Clear,20,2013-02-14 19:53:00
2:53 PM,57.0,39.0,51,30.06,10.0,NNE,6.9,-,N/A,,Clear,30,2013-02-14 20:53:00
3:53 PM,57.9,39.0,49,30.04,10.0,North,9.2,-,N/A,,Clear,350,2013-02-14 21:53:00
4:53 PM,57.0,37.0,47,30.05,10.0,North,6.9,-,N/A,,Clear,350,2013-02-14 22:53:00
5:53 PM,52.0,39.9,63,30.07,10.0,Calm,Calm,-,N/A,,Clear,0,2013-02-14 23:53:00
6:53 PM,48.9,41.0,74,30.09,10.0,Calm,Calm,-,N/A,,Clear,0,2013-02-15 00:53:00
7:53 PM,45.0,41.0,86,30.10,10.0,Calm,Calm,-,N/A,,Clear,0,2013-02-15 01:53:00
8:53 PM,46.0,41.0,83,30.11,10.0,Calm,Calm,-,N/A,,Clear,0,2013-02-15 02:53:00
9:53 PM,43.0,39.9,89,30.12,10.0,Calm,Calm,-,N/A,,Clear,0,2013-02-15 03:53:00
10:53 PM,44.1,39.9,85,30.11,10.0,Calm,Calm,-,N/A,,Clear,0,2013-02-15 04:53:00
11:53 PM,43.0,41.0,93,30.10,10.0,Calm,Calm,-,N/A,,Clear,0,2013-02-15 05:53:00